Station SWLA2 - 9455090 - Seward, AK Image indicating link to RSS feed of recent meteorological observations for station SWLA2


Conditions at SWLA2 as of
(2:48 pm AKDT)
2248 GMT on 05/30/2024:
     

Click on the graph icon in the table below to see a time series plot of the last five days of that observation.

5-day plot - Atmospheric Pressure Atmospheric Pressure (PRES):30.13 in
5-day plot - Water Temperature Water Temperature (WTMP): 48.7 °F
NOS Water Level Observation Network Water Level
Previous observations
TIME
(AKDT)
5-day plot - Wind Direction
WDIR
 
5-day plot - Wind Speed
WSPD
kts
5-day plot - Wind Gust
GST
kts
5-day plot - Wave Height
WVHT
ft
5-day plot - Dominant Wave Period
DPD
sec
5-day plot - Average Wave Period
APD
sec
5-day plot - Mean Wave Direction
MWD
 
5-day plot - Atmospheric Pressure
PRES
in
5-day plot - Pressure Tendency
PTDY
in
5-day plot - Air Temperature
ATMP
°F
5-day plot - Water Temperature
WTMP
°F
5-day plot - Dew Point
DEWP
°F
5-day plot - Salinity
SAL
psu
5-day plot - Visibility
VIS
nmi
5-day plot - Tide (above MLLW)
TIDE
ft
2024-05-30 02:42 pm-------30.13-- 48.7----
2024-05-30 02:36 pm-------30.13-- 48.7----
2024-05-30 02:30 pm-------30.13-- 48.7----
2024-05-30 02:24 pm-------30.13-- 48.7----
2024-05-30 02:18 pm-------30.14-- 48.7----
2024-05-30 02:12 pm-------30.13-- 48.7----
2024-05-30 02:06 pm-------30.13-- 48.7----
2024-05-30 02:00 pm-------30.13-0.01- 48.7----
2024-05-30 01:54 pm-------30.13-- 48.7----
2024-05-30 01:48 pm-------30.13-- 48.7----
2024-05-30 01:42 pm-------30.13-- 48.7----
2024-05-30 01:36 pm-------30.13-- 48.7----
2024-05-30 01:30 pm-------30.14-- 48.6----
2024-05-30 01:24 pm-------30.14-- 48.6----
2024-05-30 01:18 pm-------30.14-- 48.6----
2024-05-30 01:12 pm-------30.14-- 48.6----
2024-05-30 01:06 pm-------30.14-- 48.6----
2024-05-30 01:00 pm-------30.14+0.00- 48.6----
2024-05-30 12:54 pm-------30.14-- 48.4----
2024-05-30 12:48 pm-------30.14-- 48.4----
2024-05-30 12:42 pm-------30.14-- 48.4----
2024-05-30 12:36 pm-------30.14-- 48.4----
2024-05-30 12:30 pm-------30.14-- 48.4----
2024-05-30 12:24 pm-------30.14-- 48.4----
2024-05-30 12:18 pm-------30.14-- 48.4----
2024-05-30 12:12 pm-------30.14-- 48.4----
2024-05-30 12:06 pm-------30.14-- 48.2----
2024-05-30 12:00 pm-------30.14-0.01- 48.2----
2024-05-30 11:54 am-------30.14-- 48.2----
2024-05-30 11:48 am-------30.14-- 48.2----
2024-05-30 11:42 am-------30.14-- 48.2----
2024-05-30 11:36 am-------30.14-- 48.2----
2024-05-30 11:30 am-------30.14-- 48.0----
2024-05-30 11:24 am-------30.14-- 48.0----
2024-05-30 11:18 am-------30.14-- 48.0----
2024-05-30 11:12 am-------30.14-- 47.8----
2024-05-30 11:06 am-------30.14-- 48.0----
2024-05-30 11:00 am-------30.14+0.00- 48.0----
2024-05-30 10:54 am-------30.14-- 48.2----
2024-05-30 10:48 am-------30.14-- 48.4----
2024-05-30 10:42 am-------30.14-- 48.2----
2024-05-30 10:36 am-------30.14-- 48.2----
2024-05-30 10:30 am-------30.14-- 48.0----
2024-05-30 10:24 am-------30.14-- 48.0----
2024-05-30 10:18 am-------30.14-------
2024-05-30 10:12 am-------30.14-- 47.8----
2024-05-30 10:06 am-------30.14-- 47.8----
2024-05-30 10:00 am-------30.14+0.00- 47.8----
2024-05-30 09:54 am-------30.14-- 47.8----
2024-05-30 09:48 am-------30.14-- 47.7----
2024-05-30 09:42 am-------30.14-- 47.7----
2024-05-30 09:36 am-------30.14-- 47.7----
2024-05-30 09:30 am-------30.15-- 47.7----
2024-05-30 09:24 am-------30.14-- 47.7----
2024-05-30 09:18 am-------30.14-- 47.7----
2024-05-30 09:12 am-------30.15-- 47.7----
2024-05-30 09:06 am-------30.15-- 47.7----
2024-05-30 09:00 am-------30.15+0.01- 47.7----
2024-05-30 08:54 am-------30.15-- 47.7----
2024-05-30 08:48 am-------30.15-- 47.7----
2024-05-30 08:42 am-------30.14-- 47.7----
2024-05-30 08:36 am-------30.15-- 47.5----
2024-05-30 08:30 am-------30.14-- 47.3----
2024-05-30 08:24 am-------30.15-- 47.3----
2024-05-30 08:18 am-------30.14-- 47.1----
2024-05-30 08:12 am-------30.14-- 47.1----
2024-05-30 08:06 am-------30.14-- 46.9----
2024-05-30 08:00 am-------30.14+0.00- 46.9----
2024-05-30 07:54 am-------30.14-- 46.9----
2024-05-30 07:48 am-------30.14-- 46.9----
2024-05-30 07:42 am-------30.14-- 46.9----
2024-05-30 07:36 am-------30.14-- 46.9----
2024-05-30 07:30 am-------30.14-- 46.8----
2024-05-30 07:24 am-------30.14-- 46.8----
2024-05-30 07:18 am-------30.14-- 46.8----
2024-05-30 07:12 am-------30.14-- 46.8----
2024-05-30 07:06 am-------30.14-- 46.8----
2024-05-30 07:00 am-------30.14+0.00- 46.8----
2024-05-30 06:54 am-------30.14-- 46.8----
2024-05-30 06:48 am-------30.14-- 46.9----
2024-05-30 06:42 am-------30.14-- 46.9----
2024-05-30 06:36 am-------30.14-- 47.1----
2024-05-30 06:30 am-------30.14-- 46.8----
2024-05-30 06:24 am-------30.14-- 46.9----
2024-05-30 06:18 am-------30.15-- 46.9----
2024-05-30 06:12 am-------30.14-- 46.9----
2024-05-30 06:06 am-------30.14-- 46.9----
2024-05-30 06:00 am-------30.14+0.00- 46.8----
2024-05-30 05:54 am-------30.14-- 46.9----
2024-05-30 05:48 am-------30.14-- 46.8----
2024-05-30 05:42 am-------30.14-- 46.8----
2024-05-30 05:36 am-------30.14-- 46.8----
2024-05-30 05:30 am-------30.14-- 46.8----
2024-05-30 05:24 am-------30.14-- 46.8----
2024-05-30 05:18 am-------30.14-- 46.8----
2024-05-30 05:12 am-------30.14-- 46.8----
2024-05-30 05:06 am-------30.14-- 46.8----
2024-05-30 05:00 am-------30.15-- 46.9----
2024-05-30 04:54 am-------30.15-- 47.1----
2024-05-30 04:48 am-------30.15-- 47.3----
2024-05-30 04:42 am-------30.15-- 47.5----
2024-05-30 04:36 am-------30.15-- 47.7----
2024-05-30 04:30 am-------30.15-- 47.7----
2024-05-30 04:24 am-------30.14-- 47.7----
2024-05-30 04:18 am-------30.14-- 47.8----
2024-05-30 04:12 am-------30.14-- 47.8----
2024-05-30 04:06 am-------30.14-- 48.0----
2024-05-30 04:00 am-------30.15-- 48.0----
2024-05-30 03:54 am-------30.15-- 48.0----
2024-05-30 03:48 am-------30.14-- 48.2----
2024-05-30 03:42 am-------30.14-- 48.2----
2024-05-30 03:36 am-------30.15-- 48.2----
2024-05-30 03:30 am-------30.15-- 48.2----
2024-05-30 03:24 am-------30.15-- 48.2----
2024-05-30 03:18 am-------30.15-- 48.2----
2024-05-30 03:12 am-------30.15-- 48.2----
2024-05-30 03:06 am-------30.15-- 48.0----
2024-05-30 03:00 am-------30.15-- 48.0----
2024-05-30 02:54 am-------30.15-- 48.0----
2024-05-30 02:48 am-------30.15-- 48.0----
2024-05-30 02:42 am-------30.15-- 47.7----
2024-05-30 02:36 am-------30.15-- 47.5----
2024-05-30 02:30 am-------30.15-- 47.7----
2024-05-30 02:24 am-------30.15-- 47.7----
2024-05-30 02:18 am-------30.15-- 47.7----
2024-05-30 02:12 am-------30.15-- 47.8----
2024-05-30 02:06 am-------30.15-- 48.2----
2024-05-30 02:00 am-------30.15+0.02- 48.4----
2024-05-30 01:54 am-------30.15-- 48.7----
2024-05-30 01:48 am-------30.15-- 48.7----
2024-05-30 01:42 am-------30.15-- 48.9----
2024-05-30 01:36 am-------30.15-- 49.1----
2024-05-30 01:30 am-------30.15-- 49.1----
2024-05-30 01:24 am-------30.14-- 49.1----
2024-05-30 01:18 am-------30.14-- 49.3----
2024-05-30 01:12 am-------30.14-- 49.3----
2024-05-30 01:06 am-------30.14-- 49.3----
2024-05-30 01:00 am-------30.14+0.01- 49.3----
2024-05-30 12:54 am-------30.14-- 49.3----
2024-05-30 12:48 am-------30.14-- 49.3----
2024-05-30 12:42 am-------30.14-- 49.3----
2024-05-30 12:36 am-------30.14-- 49.3----
2024-05-30 12:30 am-------30.14-- 49.3----
2024-05-30 12:24 am-------30.14-- 49.3----
2024-05-30 12:18 am-------30.14-- 49.3----
2024-05-30 12:12 am-------30.14-- 49.3----
2024-05-30 12:06 am-------30.14-- 49.3----
2024-05-30 12:00 am-------30.14+0.02- 49.3----
2024-05-29 11:54 pm-------30.14-- 49.3----
2024-05-29 11:48 pm-------30.14-- 49.3----
2024-05-29 11:42 pm-------30.14-- 49.3----
2024-05-29 11:36 pm-------30.14-- 49.3----
2024-05-29 11:30 pm-------30.14-- 49.3----
2024-05-29 11:24 pm-------30.14-- 49.3----
2024-05-29 11:18 pm-------30.14-------
2024-05-29 11:12 pm-------30.13-- 49.3----
2024-05-29 11:06 pm-------30.13-- 49.3----
2024-05-29 11:00 pm-------30.13+0.02- 49.3----
2024-05-29 10:54 pm-------30.13-- 49.3----
2024-05-29 10:48 pm-------30.13-- 49.3----
2024-05-29 10:42 pm-------30.13-- 49.3----
2024-05-29 10:36 pm-------30.13-- 49.3----
2024-05-29 10:24 pm-------30.13-- 49.3----
2024-05-29 10:18 pm-------30.13-- 49.3----
2024-05-29 10:12 pm-------30.13-- 49.3----
2024-05-29 10:06 pm-------30.13-- 49.3----
2024-05-29 10:00 pm-------30.13+0.02- 49.3----
2024-05-29 09:54 pm-------30.12-- 49.3----
2024-05-29 09:48 pm-------30.12-- 49.3----
2024-05-29 09:42 pm-------30.12-- 49.3----
2024-05-29 09:36 pm-------30.12-- 49.1----
2024-05-29 09:30 pm-------30.12-- 49.1----
2024-05-29 09:24 pm-------30.12-- 49.3----
2024-05-29 09:18 pm-------30.12-- 49.1----
2024-05-29 09:12 pm-------30.12-- 49.1----
2024-05-29 09:06 pm-------30.12-- 49.1----
2024-05-29 09:00 pm-------30.12+0.02- 49.1----
2024-05-29 08:54 pm-------30.12-- 49.1----
2024-05-29 08:48 pm-------30.11-- 49.1----
2024-05-29 08:42 pm-------30.11-- 49.1----
2024-05-29 08:36 pm-------30.11-- 49.1----
2024-05-29 08:30 pm-------30.11-- 49.1----
2024-05-29 08:24 pm-------30.11-- 49.1----
2024-05-29 08:18 pm-------30.11-- 49.1----
2024-05-29 08:12 pm-------30.11-- 49.1----
2024-05-29 08:06 pm-------30.11-- 49.1----
2024-05-29 08:00 pm-------30.11+0.02- 49.1----
2024-05-29 07:54 pm-------30.11-- 49.1----
2024-05-29 07:48 pm-------30.11-- 49.1----
2024-05-29 07:42 pm-------30.11-- 49.1----
2024-05-29 07:36 pm-------30.11-- 49.1----
2024-05-29 07:30 pm-------30.11-- 49.1----
2024-05-29 07:24 pm-------30.11-- 49.1----
2024-05-29 07:18 pm-------30.11-- 49.1----
2024-05-29 07:12 pm-------30.11-- 49.1----
2024-05-29 07:06 pm-------30.11-- 49.3----
2024-05-29 07:00 pm-------30.11+0.02- 49.3----
2024-05-29 06:54 pm-------30.10-- 49.3----
2024-05-29 06:48 pm-------30.10-- 49.3----
2024-05-29 06:42 pm-------30.10-- 49.3----
2024-05-29 06:36 pm-------30.10-- 49.3----
2024-05-29 06:30 pm-------30.10-- 49.3----
2024-05-29 06:24 pm-------30.10-- 49.3----
2024-05-29 06:18 pm-------30.10-- 49.3----
2024-05-29 06:12 pm-------30.10-- 49.3----
2024-05-29 06:06 pm-------30.10-- 49.3----
2024-05-29 06:00 pm-------30.10+0.01- 49.3----
2024-05-29 05:54 pm-------30.10-- 49.3----
2024-05-29 05:48 pm-------30.10-- 49.3----
2024-05-29 05:42 pm-------30.10-- 49.3----
2024-05-29 05:36 pm-------30.10-- 49.3----
2024-05-29 05:30 pm-------30.09-- 49.3----
2024-05-29 05:24 pm-------30.09-- 49.3----
2024-05-29 05:18 pm-------30.09-------
2024-05-29 05:12 pm-------30.09-- 49.1----
2024-05-29 05:06 pm-------30.09-- 49.1----
2024-05-29 05:00 pm-------30.09+0.02- 49.1----
2024-05-29 04:54 pm-------30.09-- 49.1----
2024-05-29 04:48 pm-------30.09-- 49.3----
2024-05-29 04:42 pm-------30.09-- 49.3----
2024-05-29 04:36 pm-------30.09-- 49.3----
2024-05-29 04:30 pm-------30.09-- 49.3----
2024-05-29 04:24 pm-------30.09-- 49.1----
2024-05-29 04:18 pm-------30.09-- 49.1----
2024-05-29 04:12 pm-------30.09-- 49.1----
2024-05-29 04:06 pm-------30.09-- 49.3----
2024-05-29 04:00 pm-------30.09+0.02- 49.3----
2024-05-29 03:54 pm-------30.09-- 49.3----
2024-05-29 03:48 pm-------30.09-- 49.3----
2024-05-29 03:42 pm-------30.09-- 49.5----
2024-05-29 03:36 pm-------30.09-- 49.5----
2024-05-29 03:30 pm-------30.09-- 49.5----
2024-05-29 03:24 pm-------30.08-- 49.5----
2024-05-29 03:18 pm-------30.09-- 49.5----
2024-05-29 03:12 pm-------30.08-- 49.5----
2024-05-29 03:06 pm-------30.08-- 49.5----
2024-05-29 03:00 pm-------30.08+0.03- 49.6----
2024-05-29 02:54 pm-------30.08-- 49.6----